This is the latest recevied weather packets stored in our database for station/object VA3WWD-2. If no packets are shown the sender has not sent any weather packets the latest 10 day(s).
| Time | Temp. | Humidity | Pressure | Rain* | Wind** | Luminosity | Snow |
|---|---|---|---|---|---|---|---|
| 1777744868 | 3.89° C | 47% | - | 0 mm | 0 m/s | - | - |
| 1777744567 | 3.33° C | 47% | - | 0 mm | 0 m/s | - | - |
| 1777744269 | 3.89° C | 49% | - | 0 mm | 0 m/s | - | - |
| 1777743971 | 3.89° C | 48% | - | 0 mm | 0 m/s | - | - |
| 1777743670 | 3.33° C | 47% | - | 0 mm | 0 m/s | - | - |
| 1777743074 | 3.89° C | 45% | - | 0 mm | 0 m/s | - | - |
| 1777742773 | 3.33° C | 43% | - | 0 mm | 0 m/s | - | - |
| 1777742475 | 3.89° C | 43% | - | 0 mm | 0 m/s | - | - |
| 1777742177 | 3.89° C | 43% | - | 0 mm | 0 m/s | - | - |
| 1777741578 | 3.89° C | 38% | - | 0 mm | 0 m/s | - | - |
| 1777741280 | 3.89° C | 37% | - | 0 mm | 0 m/s | - | - |
| 1777740979 | 4.44° C | 37% | - | 0 mm | 0 m/s | - | - |
| 1777740681 | 3.89° C | 37% | - | 0 mm | 0 m/s | - | - |
| 1777740383 | 5° C | 39% | - | 0 mm | 0 m/s | - | - |
| 1777740082 | 5° C | 40% | - | 0 mm | 0 m/s | - | - |
| 1777739486 | 4.44° C | 41% | - | 0 mm | 0 m/s | - | - |
| 1777739185 | 3.89° C | 40% | - | 0 mm | 0 m/s | - | - |
| 1777738887 | 5° C | 40% | - | 0 mm | 0 m/s | - | - |
| 1777738589 | 4.44° C | 40% | - | 0 mm | 0 m/s | - | - |
| 1777738288 | 3.89° C | 42% | - | 0 mm | 0 m/s | - | - |
| 1777737990 | 3.89° C | 47% | - | 0 mm | 0 m/s | - | - |
| 1777737692 | 2.78° C | 50% | - | 0 mm | 0 m/s | - | - |
| 1777737093 | 3.89° C | 54% | - | 0 mm | 0 m/s | - | - |
| 1777736795 | 3.33° C | 54% | - | 0 mm | 0 m/s | - | - |
| 1777736494 | 3.33° C | 56% | - | 0 mm | 0 m/s | - | - |
* Rain latest hour (hover to see other rain measurements)
** Current wind speed in m/s (hover to see current wind gust speed)